Flag for Germany Weather past 2 weeks in Fürth, Bavaria, Germany

Now
54 °F

Clear.


Feels Like: 54 °F
Forecast: 48 / 73 °F
Wind: 2 mph from Northwest

Location: Nuernberg

Current Time: Sep 2, 2014 at 4:04:45 AM

Latest Report: Sep 2, 2014 at 3:20 AM


Visibility: 10 mi

Pressure: 30.12 "Hg

Humidity: 100%

Dew point: 54 °F

Location of FürthLocation

Historic Weather in Fürth — Graph

°F

Fürth temperature yesterday

Maximum temperature yesterday: 59 °F (at 12:50 PM)
Minimum temperature yesterday: 52 °F (at 12:20 AM)
Average temperature yesterday: 55 °F

Past Weeks' High & Low Weather Summary

 TemperatureHumidityPressure
High73 °F (Aug 28, 4:20 PM)100% (Aug 19, 4:50 AM)30.15 "Hg (Aug 19, 4:50 AM)
Low41 °F (Aug 25, 6:20 AM)35% (Aug 22, 2:50 PM)29.68 "Hg (Aug 26, 6:50 AM)
Average58 °F78%29.99 "Hg
* Reported Aug 18 2:20 AM — Sep 2 2:50 AM, Fürth, Weather by CustomWeather, © 2014

Note: Actual official high and low records may vary slightly from our data, if they occured in-between our weather recording intervals... More about our weather records

Advertising

Fürth weather history for previous 24 hours

 ConditionsComfort  
Time TempWeatherWind HumidityBarometerVisibility
2:50 AM
Sep 2
55 °FClear.No wind94%30.12 "Hg10 mi
2:20 AM54 °FPassing clouds.2 mph100%30.12 "HgN/A
1:50 AM54 °FClear.1 mph100%30.12 "Hg10 mi
1:20 AM55 °FClear.No wind94%30.12 "Hg10 mi
12:50 AM54 °FCool.2 mph100%30.12 "HgN/A
12:20 AM55 °FClear.1 mph94%30.12 "Hg10 mi
11:50 PM
Sep 1
55 °FClear.1 mph94%30.12 "Hg10 mi
11:20 PM54 °FPassing clouds.2 mph100%30.15 "HgN/A
10:20 PM55 °FClear.1 mph88%30.15 "Hg10 mi
9:50 PM54 °FClear.2 mph94%30.15 "Hg10 mi
9:20 PM55 °FClear.1 mph88%30.15 "Hg10 mi
8:50 PM55 °FSunny.1 mph88%30.15 "Hg10 mi
8:20 PM57 °FSunny.No wind82%30.12 "Hg10 mi
7:50 PM57 °FSunny.1 mph88%30.12 "Hg10 mi
7:20 PM59 °FOvercast.3 mph77%30.12 "HgN/A
6:50 PM59 °FOvercast.5 mph77%30.12 "HgN/A
6:20 PM59 °FOvercast.5 mph77%30.12 "HgN/A
5:50 PM59 °FOvercast.5 mph77%30.12 "HgN/A
5:20 PM59 °FOvercast.5 mph77%30.12 "HgN/A
4:50 PM59 °FOvercast.6 mph77%30.12 "HgN/A
4:20 PM59 °FPartly sunny.7 mph77%30.12 "HgN/A
3:50 PM59 °FPartly sunny.3 mph77%30.12 "HgN/A
3:20 PM59 °FPartly sunny.6 mph77%30.12 "HgN/A
2:50 PM59 °FPartly sunny.5 mph77%30.12 "HgN/A
2:20 PM57 °FPartly sunny.8 mph82%30.12 "HgN/A
1:50 PM57 °FPartly sunny.6 mph82%30.12 "HgN/A
1:20 PM57 °FPartly sunny.5 mph82%30.12 "HgN/A
12:50 PM59 °FPartly sunny.5 mph77%30.12 "HgN/A
12:20 PM57 °FBroken clouds.7 mph82%30.12 "HgN/A
11:50 AM57 °FBroken clouds.6 mph82%30.09 "HgN/A
11:20 AM55 °FPartly sunny.3 mph88%30.09 "HgN/A
10:50 AM55 °FPartly sunny.7 mph88%30.09 "HgN/A
10:20 AM54 °FBroken clouds.7 mph94%30.09 "HgN/A
9:50 AM54 °FBroken clouds.7 mph94%30.09 "HgN/A
9:20 AM54 °FBroken clouds.6 mph94%30.09 "HgN/A
8:50 AM54 °FPartly sunny.5 mph94%30.09 "HgN/A
8:20 AM52 °FPartly sunny.6 mph100%30.07 "HgN/A
7:50 AM52 °FPartly sunny.5 mph100%30.07 "HgN/A
7:20 AM52 °FPassing clouds.5 mph94%30.07 "HgN/A
6:50 AM52 °FPassing clouds.3 mph94%30.04 "Hg6 mi
6:20 AM52 °FPassing clouds.5 mph100%30.04 "Hg4 mi
5:50 AM52 °FLow clouds.5 mph100%30.04 "Hg4 mi
5:20 AM52 °FPassing clouds.6 mph100%30.04 "Hg4 mi
4:50 AM52 °FPassing clouds.5 mph100%30.04 "Hg4 mi
4:20 AM52 °FPassing clouds.5 mph100%30.01 "Hg4 mi
Weather by CustomWeather, © 2014

See weather overviewHow to use our weather pages